Stations météo

Publicité
Geneve-Cointrin, Suisse (6700): Température de l'air & dewpoint: 23.01.2020 19:00:00 - 29.01.2020 19:00:00 (CET)Geneve-Cointrin, Suisse (6700): Température de l'air 5cm: 23.01.2020 19:00:00 - 29.01.2020 19:00:00 (CET)Geneve-Cointrin, Suisse (6700): water temperature: 23.01.2020 19:00:00 - 29.01.2020 19:00:00 (CET)Geneve-Cointrin, Suisse (6700): Vitesse du vent & gusts: 23.01.2020 19:00:00 - 29.01.2020 19:00:00 (CET)Geneve-Cointrin, Suisse (6700): Direction du vent: 23.01.2020 19:00:00 - 29.01.2020 19:00:00 (CET)Geneve-Cointrin, Suisse (6700): reduced air pressure: 23.01.2020 19:00:00 - 29.01.2020 19:00:00 (CET)Geneve-Cointrin, Suisse (6700): visibility: 23.01.2020 19:00:00 - 29.01.2020 19:00:00 (CET)Geneve-Cointrin, Suisse (6700): Ensoleillement: 23.01.2020 19:00:00 - 29.01.2020 19:00:00 (CET)Geneve-Cointrin, Suisse (6700): Quantités de précipitations: 23.01.2020 19:00:00 - 29.01.2020 19:00:00 (CET)
Date & Time tt [°C] td [°C] tt 5cm [°C] tw [°C] ff [km/h] ff [knt] fx [km/h] fx [knt] dd ppp [hPa] vv [km] sd [min] rr [mm]
29.01.2020 19:00:00 - - - - - - - - - - - - -
29.01.2020 18:00:00 6,2 4,2 4,8 - 11 6 27 15 SW 1020,5 - 0 0,0
29.01.2020 17:00:00 6,6 4,6 5,5 - 16 9 30 16 SSW 1019,9 - 0 0,2
29.01.2020 16:00:00 6,9 3,6 5,9 - 20 11 42 23 SSW 1019,5 20 0 0,0
29.01.2020 15:00:00 7,1 3,7 6,3 - 22 12 46 25 SSW 1018,7 - 2 0,0
29.01.2020 14:00:00 7,3 4,0 6,9 - 34 18 47 25 SSW 1018,4 - 3 0,1
29.01.2020 13:00:00 7,4 4,6 7,5 - 26 14 48 26 SSW 1018,3 25 11 0,1
29.01.2020 12:00:00 6,3 4,0 5,9 - 29 16 48 26 SSW 1018,8 - 2 0,1
29.01.2020 11:00:00 6,5 3,0 5,9 - 27 14 40 22 SSW 1018,4 - 0 0,1
29.01.2020 10:00:00 5,4 3,3 4,5 - 26 14 37 20 SSW 1017,9 18 0 0,3
29.01.2020 09:00:00 4,9 3,5 3,9 - 18 10 30 16 SSW 1017,8 - 0 0,9
29.01.2020 08:00:00 4,9 3,7 3,9 - 17 9 41 22 SSW 1017,2 - 0 1,7
29.01.2020 07:00:00 5,3 2,8 3,8 - 26 14 40 22 SSW 1016,1 12 0 0,1
29.01.2020 06:00:00 5,0 3,3 3,7 - 21 11 45 24 SSW 1015,9 - 0 0,5
29.01.2020 05:00:00 4,8 3,4 3,8 - 25 14 46 25 SSW 1015,5 - 0 0,3
29.01.2020 04:00:00 5,2 3,1 3,7 - 22 12 36 20 SSW 1015,3 - 0 0,1
29.01.2020 03:00:00 4,7 3,3 3,6 - 20 11 41 22 SSW 1015,8 - 0 0,1
29.01.2020 02:00:00 4,8 3,1 3,4 - 26 14 50 27 SSW 1014,9 - 0 0,4
29.01.2020 01:00:00 4,7 3,2 3,6 - 21 11 37 20 SSW 1014,3 - 0 2,1
29.01.2020 00:00:00 5,1 2,6 3,5 - 22 12 48 26 SSW 1014,1 - 0 0,8
28.01.2020 23:00:00 5,0 2,5 3,5 - 26 14 41 22 SSW 1013,9 - 0 0,6
28.01.2020 22:00:00 5,2 0,8 3,9 - 26 14 38 20 SSW 1013,8 25 0 0,0
28.01.2020 21:00:00 5,3 -0,1 3,6 - 21 11 41 22 SSW 1014,5 - 0 0,0
28.01.2020 20:00:00 5,4 0,0 3,6 - 25 13 35 19 S 1014,5 - 0 0,0
28.01.2020 19:00:00 5,2 0,3 3,4 - 18 10 35 19 SSW 1014,5 20 0 0,0
28.01.2020 18:00:00 5,2 0,6 4,1 - 19 10 32 17 SSW 1013,7 - 0 0,0
28.01.2020 17:00:00 5,7 0,5 4,6 - 25 13 43 23 SSW 1013,6 - 0 0,0
28.01.2020 16:00:00 5,9 0,2 5,0 - 27 14 59 32 SSW 1013,4 16 0 0,0
28.01.2020 15:00:00 5,6 0,0 4,3 - 22 12 40 22 SW 1013,6 - 0 0,0
28.01.2020 14:00:00 5,4 1,6 4,2 - 27 15 47 26 SSW 1013,3 - 0 0,1
28.01.2020 13:00:00 5,8 3,2 4,8 - 11 6 58 31 W 1013,1 6 0 0,6
28.01.2020 12:00:00 7,8 1,6 7,2 - 25 13 66 36 SSW 1011,9 - 0 0,0
28.01.2020 11:00:00 6,4 2,3 4,7 - 27 14 58 31 SSW 1011,6 - 0 0,6
28.01.2020 10:00:00 6,6 3,3 5,8 - 27 14 78 42 W 1009,9 8 0 0,6
28.01.2020 09:00:00 8,3 4,1 6,1 - 34 18 74 40 SW 1008,0 - 0 0,4
28.01.2020 08:00:00 9,1 3,4 6,7 - 39 21 61 33 SW 1008,0 - 0 0,1
28.01.2020 07:00:00 9,7 2,8 8,1 - 41 22 62 34 SSW 1007,8 30 0 0,0
28.01.2020 06:00:00 9,4 3,7 7,6 - 32 17 53 29 SSW 1007,7 - 0 0,0
28.01.2020 05:00:00 8,6 4,6 6,4 - 34 18 51 28 SSW 1008,0 - 0 0,0
28.01.2020 04:00:00 7,5 4,9 5,8 - 19 11 41 22 SW 1008,7 - 0 0,7
28.01.2020 03:00:00 7,4 4,8 5,7 - 21 11 32 17 WSW 1009,9 - 0 0,5
28.01.2020 02:00:00 7,2 4,6 5,5 - 20 11 34 18 WSW 1009,9 - 0 0,9
28.01.2020 01:00:00 6,9 4,3 5,3 - 16 9 43 23 WSW 1010,6 - 0 0,1
28.01.2020 00:00:00 7,0 4,3 5,7 - 27 14 41 22 SW 1011,4 - 0 0,1
27.01.2020 23:00:00 7,3 3,6 5,6 - 29 15 49 26 SSW 1012,0 - 0 0,1
27.01.2020 22:00:00 7,1 3,6 5,3 - 27 14 38 21 SW 1012,5 12 0 0,1
27.01.2020 21:00:00 6,9 4,2 5,3 - 20 11 39 21 WSW 1012,9 - 0 0,1
27.01.2020 20:00:00 6,5 4,5 5,2 - 30 16 44 24 SSW 1013,6 - 0 0,5
27.01.2020 19:00:00 7,2 4,1 5,5 - 26 14 45 25 SW 1014,0 8 0 0,0
27.01.2020 18:00:00 8,2 2,4 6,9 - 27 15 53 28 SW 1013,8 - 0 0,0
27.01.2020 17:00:00 8,1 3,1 6,9 - 18 10 27 14 S 1013,8 - 0 0,0
27.01.2020 16:00:00 8,3 3,1 7,3 - 17 9 30 16 S 1014,1 23 0 0,0
27.01.2020 15:00:00 8,5 2,3 7,8 - 26 14 33 18 SW 1014,4 - 0 0,0
27.01.2020 14:00:00 7,8 4,2 7,4 - 15 8 26 14 WSW 1015,5 - 0 0,0
27.01.2020 13:00:00 8,2 4,3 7,2 - 10 5 23 12 WSW 1016,5 25 0 0,0
27.01.2020 12:00:00 7,8 4,1 8,9 - 18 10 28 15 SW 1017,2 - 51 0,0
27.01.2020 11:00:00 5,4 4,0 5,7 - 7 4 12 6 SW 1018,5 - 19 0,0
27.01.2020 10:00:00 3,9 2,9 4,0 - 4 2 10 5 SW 1019,5 3,3 37 0,0
27.01.2020 09:00:00 1,5 1,0 -0,8 - 1 1 11 6 W 1020,4 - 0 0,0
27.01.2020 08:00:00 0,6 0,3 -0,8 - 4 2 11 6 WNW 1020,9 - 0 0,0
27.01.2020 07:00:00 0,9 0,5 -1,8 - 1 1 12 7 NE 1021,1 5 0 0,0
27.01.2020 06:00:00 0,1 0,0 -2,0 - 4 2 12 7 S 1021,7 - 0 0,0
27.01.2020 05:00:00 -0,8 -0,8 -2,5 - 1 1 13 7 ESE 1022,2 - 0 0,0
27.01.2020 04:00:00 0,5 0,2 -2,0 - 2 1 12 6 W 1022,2 - 0 0,0
27.01.2020 03:00:00 0,2 0,1 -1,4 - 2 1 11 6 S 1022,7 - 0 0,0
27.01.2020 02:00:00 0,6 0,5 -0,9 - 1 1 12 6 W 1022,4 - 0 0,0
27.01.2020 01:00:00 2,0 1,9 0,3 - 3 2 13 7 NW 1022,3 - 0 0,1
27.01.2020 00:00:00 3,0 2,7 2,5 - 1 1 13 7 SE 1022,4 - 0 0,6
26.01.2020 23:00:00 3,2 2,6 2,6 - 2 1 13 7 W 1022,4 - 0 0,1
26.01.2020 22:00:00 3,0 2,6 2,5 - 6 3 9 5 SW 1022,5 5 0 0,0
26.01.2020 21:00:00 3,8 2,5 2,9 - 1 1 12 7 WNW 1022,1 - 0 0,0
26.01.2020 20:00:00 3,7 2,7 2,6 - 4 2 8 4 WNW 1022,0 - 0 0,0
26.01.2020 19:00:00 3,3 2,8 2,7 - 1 1 13 7 W 1022,1 4,0 0 0,0
26.01.2020 18:00:00 3,9 2,8 3,0 - 3 2 10 6 WNW 1022,0 - 0 0,1
26.01.2020 17:00:00 3,4 2,9 3,0 - 2 1 12 7 WNW 1022,1 - 0 0,0
26.01.2020 16:00:00 3,4 2,6 3,2 - 3 1 13 7 N 1022,0 4,0 0 0,3
26.01.2020 15:00:00 3,3 2,4 3,6 - 4 2 13 7 N 1021,8 - 0 0,0
26.01.2020 14:00:00 3,1 1,9 3,1 - 5 3 10 5 WSW 1022,2 - 0 0,1
26.01.2020 13:00:00 2,5 1,7 2,8 - 2 1 11 6 SSE 1022,7 5 0 0,4
26.01.2020 12:00:00 2,0 1,3 2,0 - 3 2 11 6 W 1023,4 - 0 0,6
26.01.2020 11:00:00 1,8 1,2 2,1 - 4 2 11 6 W 1023,5 - 0 0,0
26.01.2020 10:00:00 1,2 0,9 1,3 - 3 1 9 5 WSW 1023,4 0,5 0 0,0
26.01.2020 09:00:00 1,2 0,9 1,1 - 8 4 11 6 SW 1023,3 - 0 0,0
26.01.2020 08:00:00 1,5 1,1 1,1 - 4 2 13 7 NW 1023,0 - 0 0,0
26.01.2020 07:00:00 1,1 0,8 0,9 - 3 2 8 4 N 1022,7 0,4 0 0,0
26.01.2020 06:00:00 1,0 1,0 0,9 - 5 3 9 5 SW 1022,5 - 0 0,0
26.01.2020 05:00:00 0,9 0,9 0,8 - 5 3 9 5 SW 1022,6 - 0 0,0
26.01.2020 04:00:00 1,2 0,9 0,9 - 7 4 9 5 SW 1022,7 - 0 0,0
26.01.2020 03:00:00 1,4 1,2 1,1 - 4 2 11 6 SW 1023,1 - 0 0,0
26.01.2020 02:00:00 0,9 0,9 0,9 - 2 1 6 3 WNW 1023,2 - 0 0,0
26.01.2020 01:00:00 0,8 0,8 0,8 - 3 2 11 6 NW 1023,5 - 0 0,0
26.01.2020 00:00:00 1,3 1,3 1,2 - 5 3 9 5 NW 1023,4 - 0 0,0
25.01.2020 23:00:00 2,0 1,7 1,7 - 5 3 13 7 W 1023,3 - 0 0,0
25.01.2020 22:00:00 1,9 1,7 1,7 - 2 1 13 7 NNW 1023,4 1,2 0 0,0
25.01.2020 21:00:00 2,4 1,9 2,0 - 4 2 12 7 W 1023,3 - 0 0,0
25.01.2020 20:00:00 2,2 1,7 1,9 - 2 1 13 7 NNW 1023,5 - 0 0,0
25.01.2020 19:00:00 2,5 1,4 1,5 - 3 2 5 3 WNW 1023,1 5 0 0,0
25.01.2020 18:00:00 2,8 1,4 1,8 - 3 2 6 4 WNW 1022,8 - 0 0,0
25.01.2020 17:00:00 3,0 1,3 1,6 - 4 2 13 7 NNE 1022,8 - 0 0,0
25.01.2020 16:00:00 3,2 1,4 3,5 - 3 2 9 5 WNW 1023,3 4,2 0 0,0
25.01.2020 15:00:00 3,3 1,3 4,9 - 4 2 13 7 WSW 1023,5 - 0 0,0
25.01.2020 14:00:00 2,6 1,2 3,9 - 4 2 11 6 SSW 1024,0 - 0 0,0
25.01.2020 13:00:00 2,6 1,3 3,6 - 6 3 11 6 W 1024,8 2,3 0 0,0
25.01.2020 12:00:00 2,3 1,2 3,0 - 3 2 8 4 W 1025,5 - 0 0,0
25.01.2020 11:00:00 2,0 1,1 2,4 - 3 2 9 5 NNW 1025,7 - 0 0,0
25.01.2020 10:00:00 1,5 0,9 1,3 - 5 3 8 5 NW 1025,6 0,7 0 0,0
25.01.2020 09:00:00 1,8 0,9 1,4 - 6 3 10 5 W 1025,2 - 0 0,0
25.01.2020 08:00:00 1,4 1,0 1,0 - 5 3 7 4 W 1025,0 - 0 0,0
25.01.2020 07:00:00 1,5 0,9 1,0 - 4 2 5 3 W 1024,9 2,5 0 0,0
25.01.2020 06:00:00 1,1 0,6 0,9 - 2 1 12 6 NW 1024,8 - 0 0,0
25.01.2020 05:00:00 1,1 0,5 0,9 - 2 1 13 7 NW 1024,7 - 0 0,0
25.01.2020 04:00:00 1,2 0,8 1,0 - 5 3 8 5 NW 1025,0 - 0 0,0
25.01.2020 03:00:00 1,5 0,9 1,1 - 4 2 13 7 W 1025,2 - 0 0,0
25.01.2020 02:00:00 1,5 0,7 1,2 - 1 1 8 4 SSW 1025,2 - 0 0,0
25.01.2020 01:00:00 1,9 0,9 1,4 - 2 1 12 6 W 1025,4 - 0 0,0
25.01.2020 00:00:00 1,6 0,9 1,1 - 1 1 12 7 W 1025,7 - 0 0,0
24.01.2020 23:00:00 1,6 0,9 1,2 - 2 1 5 3 ENE 1025,9 - 0 0,0
24.01.2020 22:00:00 1,6 0,8 1,3 - 4 2 13 7 ENE 1026,0 4,0 0 0,0
24.01.2020 21:00:00 1,8 0,9 1,4 - 3 2 8 4 E 1026,0 - 0 0,0
24.01.2020 20:00:00 1,8 1,0 1,6 - 5 3 9 5 E 1026,0 - 0 0,0
24.01.2020 19:00:00 1,9 0,8 1,5 - 3 1 11 6 WNW 1025,6 4,5 0 0,0
24.01.2020 18:00:00 1,9 0,8 1,5 - 3 2 13 7 NNW 1025,5 - 0 0,0
24.01.2020 17:00:00 2,0 0,7 1,9 - 2 1 13 7 NNE 1025,6 - 0 0,0
24.01.2020 16:00:00 1,9 0,6 2,1 - 3 1 13 7 SW 1025,7 4,0 0 0,0
24.01.2020 15:00:00 2,1 0,9 2,2 - 3 2 13 7 NW 1025,9 - 0 0,0
24.01.2020 14:00:00 1,5 0,5 2,0 - 5 3 12 7 NNE 1026,8 - 0 0,0
24.01.2020 13:00:00 1,3 0,7 1,8 8,0 4 2 9 5 NNE 1027,3 2,5 0 0,0
24.01.2020 12:00:00 1,1 0,7 1,6 - 3 2 13 7 N 1028,0 - 0 0,0
24.01.2020 11:00:00 0,8 0,6 1,3 - 3 2 13 7 N 1028,5 - 0 0,0
24.01.2020 10:00:00 0,3 0,3 0,3 - 2 1 13 7 N 1028,6 0,4 0 0,0
24.01.2020 09:00:00 -0,2 -0,2 -0,3 - 1 0 5 3 SW 1028,9 - 0 0,0
24.01.2020 08:00:00 -0,2 -0,4 -0,6 - 3 2 10 6 W 1028,8 - 0 0,0
24.01.2020 07:00:00 -0,2 -0,7 -0,8 - 6 3 11 6 W 1028,7 0,7 0 0,0
24.01.2020 06:00:00 -0,8 -0,9 -0,8 - 4 2 13 7 N 1028,7 - 0 0,0
24.01.2020 05:00:00 -0,6 -0,9 -0,8 - 3 2 13 7 WNW 1029,0 - 0 0,0
24.01.2020 04:00:00 -0,4 -0,8 -0,6 - 5 3 8 5 WNW 1029,2 - 0 0,0
24.01.2020 03:00:00 -0,4 -0,8 -0,6 - 4 2 13 7 WNW 1029,5 - 0 0,0
24.01.2020 02:00:00 -0,5 -0,8 -0,6 - 3 1 11 6 ESE 1029,7 - 0 0,0
24.01.2020 01:00:00 -0,3 -1,0 -0,6 - 2 1 12 7 SW 1029,8 - 0 0,0
24.01.2020 00:00:00 -0,4 -1,0 -0,5 - 4 2 9 5 E 1030,3 - 0 0,0
23.01.2020 23:00:00 0,2 -0,8 -0,2 - 3 2 13 7 NE 1030,1 - 0 0,0
23.01.2020 22:00:00 0,2 -0,9 -0,2 - 5 3 11 6 E 1030,0 4,0 0 0,0
23.01.2020 21:00:00 0,5 -0,9 -0,1 - 4 2 12 6 W 1029,8 - 0 0,0
23.01.2020 20:00:00 0,4 -0,9 -0,1 - 3 2 11 6 ESE 1029,6 - 0 0,0
23.01.2020 19:00:00 0,5 -0,9 0,1 - 6 3 9 5 N 1029,1 5 0 0,0

tt = Température de l'air
td = dewpoint
tt 5cm = Température de l'air 5cm
tw = water temperature
ff = Vitesse du vent
fx = gusts
dd = Direction du vent
ppp = reduced air pressure
vv = visibility
sd = Ensoleillement
rr = Quantités de précipitations

stations d'obs. à proximité